Regional Weather Roundup
Issued by NWS

Home | Current Version | Previous Version | Text Only | Print | Product List | Glossary On
Versions: 1 2 3 4 5 6 7 8 9 10 11 12 13 14 15 16 17 18 19 20 21 22 23 24 25 26 27 28 29 30 31 32 33 34 35 36 37 38 39 40 41 42 43 44 45 46 47 48 49 50
000
ASUS43 KMKX 272121
RWRWI

WISCONSIN REGIONAL WEATHER ROUNDUP
NATIONAL WEATHER SERVICE MILWAUKEE/SULLIVAN WI
400 PM CDT TUE JUN 27 2017

NOTE: "FAIR" INDICATES FEW OR NO CLOUDS BELOW 12,000 FEET WITH NO
SIGNIFICANT WEATHER AND/OR OBSTRUCTIONS TO VISIBILITY.

WIZ001-002-006>008-014>016-023>028-272200-
NORTHWEST WISCONSIN

CITY           SKY/WX    TMP DP  RH WIND       PRES   REMARKS
SUPERIOR ARPT  NOT AVBL
ASHLAND        CLOUDY    73  48  41 SW13G23   29.92F
HAYWARD        MOSUNNY   73  44  35 SW17G24   29.95F
SIREN          SUNNY     74  42  31 S13G18    29.93F
CUMBERLAND     SUNNY     70  43  37 S13G18    29.96F
RICE LAKE      SUNNY     74  44  34 S8G17     29.97F
CHETEK         SUNNY     74  48  40 S8        29.97F
LADYSMITH      SUNNY     74  47  37 SW14      29.99F
EAU CLAIRE     SUNNY     75  43  31 SW13      29.97F
MENOMONIE      SUNNY     75  44  33 S13G20    29.97F
NEW RICHMOND   SUNNY     73  42  31 S10G18    29.95F
OSCEOLA        SUNNY     75  43  31 S10G20    29.96F
$$

WIZ003>005-009-010-017-018-272200-
NORTH CENTRAL WISCONSIN

CITY           SKY/WX    TMP DP  RH WIND       PRES   REMARKS
MANITOWISH WTR MOSUNNY   72  46  40 SW13G18   29.96F
ARBOR VITAE    MOSUNNY   72  48  42 SW9       29.96F
WOODRUFF       MOSUNNY   72  48  42 SW9       29.96F
RHINELANDER    SUNNY     73  47  39 W9        29.99F
EAGLE RIVER    MOSUNNY   71  44  37 W13       29.96F
LAND O LAKES   MOSUNNY   73  43  33 SW5       29.97F
PHILLIPS       SUNNY     71  48  44 SW9       29.97F
TOMAHAWK       NOT AVBL
MEDFORD        MOSUNNY   71  47  42 SW9       30.00F
MERRILL        MOSUNNY   72  48  42 W13       29.99F
$$

WIZ029-030-035-036-043>047-272200-
CENTRAL WISCONSIN

CITY           SKY/WX    TMP DP  RH WIND       PRES   REMARKS
WAUSAU         SUNNY     71  46  40 S5        29.99F
MOSINEE        PTSUNNY   73  46  38 SW8       30.02F
MARSHFIELD     MOSUNNY   73  47  39 SW6       30.00F
STEVENS POINT  MOSUNNY   72  45  37 W7        30.01F
WAUPACA        PTSUNNY   77  43  30 SW9       30.01S
WAUTOMA        MOSUNNY   75  46  35 W10       30.02F
WISC RAPIDS    PTSUNNY   73  48  41 S10       30.02F
CAMP DOUGLAS   PTSUNNY   73  50  43 SW10      30.02F
$$

WIZ011>013-019>022-031-037>040-048>050-272200-
NORTHEAST WISCONSIN

CITY           SKY/WX    TMP DP  RH WIND       PRES   REMARKS
ANTIGO         MOSUNNY   71  50  47 W10       30.00F
SHAWANO        SUNNY     75  46  35 NW5       29.98F
OCONTO         MOSUNNY   75  48  39 W6        29.97F
STURGEON BAY     N/A     71  54  54 SE13      29.99F
GREEN BAY      MOSUNNY   75  51  43 W9        29.99F
MANITOWOC      MOSUNNY   73  47  39 W8        30.01F
APPLETON       PTSUNNY   72  41  33 W7        30.00F
CLINTONVILLE   SUNNY     73  41  31 W12       29.99F
OSHKOSH        MOSUNNY   74  47  38 W8        30.01F
$$

WIZ032>034-041-042-053>061-272200-
SOUTHWEST WISCONSIN

CITY           SKY/WX    TMP DP  RH WIND       PRES   REMARKS
LA CROSSE      SUNNY     81  46  29 S12       30.00F HX  80
SPARTA         MOSUNNY   74  49  41 S9        30.02F
VIROQUA        SUNNY     73  46  39 S8        30.04F
BOSCOBEL       SUNNY     76  46  34 SW8       30.03F
PRAIRIE DU CHI SUNNY     75  42  31 S8        30.03S
PLATTEVILLE    SUNNY     74  44  33 S12       30.05F
$$

WIZ056-057-062-063-064-067-068-272200-
SOUTH CENTRAL WISCONSIN

CITY           SKY/WX    TMP DP  RH WIND       PRES   REMARKS
REEDSBURG      SUNNY     74  49  40 SW9       30.03F
BARABOO/DELLS  MOSUNNY   73  44  35 S6G16     30.03F
LONE ROCK      SUNNY     75  45  34 SW6       30.03F
MINERAL POINT  SUNNY     75  43  31 S8        30.05F
MADISON        PTSUNNY   74  47  38 SW8       30.04F
MIDDLETON      PTSUNNY   75  45  33 SW7       30.05F
WATERTOWN      NOT AVBL
MONROE         MOSUNNY   73  41  31 SW7       30.06F
JANESVILLE     MOSUNNY   75  41  29 SW9       30.05F
$$

WIZ051-052-058>065-066-070>072-272200-
SOUTHEAST WISCONSIN

CITY           SKY/WX    TMP DP  RH WIND       PRES   REMARKS
MILWAUKEE      PTSUNNY   74  47  38 VRB6      30.04F
WAUKESHA       MOSUNNY   70  45  40 SW8       30.06F
MILWAUKEE/TIMM PTSUNNY   73  41  31 SW10      30.05F
RACINE         MOSUNNY   72  50  45 SE9       30.07F
KENOSHA        SUNNY     74  48  39 VRB5      30.06F
FOND DU LAC    MOSUNNY   73  43  33 W7        30.02F
SHEBOYGAN      SUNNY     74  50  42 W7        30.02F
WEST BEND      MOSUNNY   72  43  35 W8        30.03F
JUNEAU         MOSUNNY   71  47  42 W12       30.05F
$$

LSZ147-162-272200-
LAKE SUPERIOR

STATION/POSITION TIME  TEMP    WIND        PRES    WAVE
                       AIR SEA DIR/SP/G            HT/PER
                 (UTC) (F)     (DEG/KT/KT) (MB)    (FT/S)
W MID LAKE BUOY  2050   47 39  210/  8/ 10 1013.1F   1
DEVILS ISLAND    2100   67     240/  7/  9 1012.3F
SAXON HARBOR     2040   74     230/  8/ 15 1012.5F
$$

LMZ867-665-643>646-272200-
LAKE MICHIGAN

STATION/POSITION TIME  TEMP    WIND        PRES    WAVE
                       AIR SEA DIR/SP/G            HT/PER
                 (UTC) (F)     (DEG/KT/KT) (MB)    (FT/S)
CHAMBERS ISLAND  2040   71     170/  7/ 11 1014.9F
S GREEN BAY BUOY 2100   70     190/  6/  8 1015.0
N MID LAKE BUOY  1950   58 58  190/ 10/ 12 1016.9F   1
NORTHPORT PIER   2040   66     150/ 10/ 16 1015.6F
KEWAUNEE LAKESHO 2054   56     180/ 12/ 13 1015.7F
SHEBOYGAN LAKESH 2100   59     160/ 16/ 18 1016.4F
PORT WASHINGTON  2040   65     180/  8/ 13 1017.9F
ATWATER BUOY     2009   61 57  150/ 12/ 12 1017.6F
MILWAUKEE LAKESH 2100   62     140/ 13/ 15   N/A
S MID LAKE BUOY  2050   63 62  170/ 10/ 12 1018.3F   1
KENOSHA   LAKESH 2100   63     170/ 13/ 15 1017.3
$$

TC  - TEMPERATURE IN CELSIUS
VSB - VISIBILITY IN STATUTE MILES
WCI - WIND CHILL INDEX
HX  - HEAT INDEX





USA.gov is the U.S. government's official web portal to all federal, state and local government web resources and services.